Regional Weather Roundup
Issued by NWS

Home | Current Version | Previous Version | Graphics & Text | Print | Product List | Glossary On
Versions: 1 2 3 4 5 6 7 8 9 10 11 12 13 14 15 16 17 18 19 20 21 22 23 24 25 26 27 28 29 30 31 32 33 34 35 36 37 38 39 40 41 42 43 44 45 46 47 48 49 50
000
ASUS43 KLMK 160010
RWRKY
KENTUCKY REGIONAL WEATHER ROUNDUP
NATIONAL WEATHER SERVICE LOUISVILLE KY
800 PM EDT TUE APR 15 2014

NOTE "FAIR" INDICATES FEW OR NO CLOUDS BELOW 12,000 FEET
WITH NO SIGNIFICANT WEATHER AND/OR OBSTRUCTIONS TO VISIBILITY.

KYZ001>023-026-027-061>063-070>075-160100-
WESTERN AND SOUTH CENTRAL KENTUCKY

CITY           SKY/WX    TMP DP  RH WIND       PRES   REMARKS
PADUCAH        CLEAR     47  20  34 N7        30.19S
HENDERSON      PTCLDY    41  19  42 N9        30.21F
OWENSBORO      PTCLDY    41  19  41 N7        30.21F
HOPKINSVILLE   CLEAR     43  21  42 N7        30.19F
BOWLING GREEN  CLEAR     42  17  36 N6        30.20R
GLASGOW        CLEAR     41  20  42 NW9       30.18S
$$

KYZ024-025-028>034-038-045-046-053-160100-
NORTH CENTRAL KENTUCKY

CITY           SKY/WX    TMP DP  RH WIND       PRES   REMARKS
LOUISVILLE/SDF PTCLDY    42  18  37 NW10      30.19R
LOUISVILLE/LOU PTCLDY    44  16  32 NW9       30.19R
FORT KNOX      PTCLDY    40  19  42 W10       30.17R WCI  34
$$

KYZ035>037-039>044-047>052-055>060-089>105-160100-
NORTHEAST KENTUCKY

CITY           SKY/WX    TMP DP  RH WIND       PRES   REMARKS
LEXINGTON      PTCLDY    37  22  54 NW7       30.17R WCI  32
COVINGTON      PTCLDY    36  16  44 NW17      30.18R WCI  26
FRANKFORT      PTCLDY    39  19  44 N9        30.17R WCI  33
$$

KYZ054-064>069-076>088-106>120-160100-
SOUTHEAST KENTUCKY

CITY           SKY/WX    TMP DP  RH WIND       PRES   REMARKS
JACKSON        CLOUDY    36  21  54 VRB6      30.13R WCI  31
LONDON         CLOUDY    39  23  52 NW9       30.14R WCI  33
SOMERSET       MOCLDY    37  23  56 N10       30.18R WCI  30
MIDDLESBORO    CLOUDY    39  25  58 N7        30.13R WCI  34
MONTICELLO     MOCLDY    40  25  55 N9        30.18R WCI  34
$$




USA.gov is the U.S. government's official web portal to all federal, state and local government web resources and services.